Location: Newark
(52.8300°N, 8.0000°E)
Time: 00:31:05
(UTC+00:00)

STARLINK-1115 - Pass Details

Date: 29 January 2020
Orbit: 348 x 351 km, 53.0° (Epoch: 23 February)

Event Time Altitude Azimuth Distance (km) Brightness Sun altitude
Rises 17:34:10 0° 283° (WNW) 2,181 7.9 -13.2°
Reaches altitude 10° 17:36:14 10° 278° (W) 1,334 6.8 -13.5°
Maximum altitude 17:39:06 48° 202° (SSW) 477 3.5 -13.9°
Enters shadow 17:41:00 18° 133° (SE) 948 4.5 -14.2°
